Cosmos 371 Rocket - Orbit

View from above orbital plane
View from above orbital plane
View from above satellite
View from above satellite

Ground track
Ground track

The orbit data is extracted from the following two-line orbital elements,

1 04579U 70083B   13143.80528811  .00000503  00000-0  11287-3 0  6186
2 04579 074.0053 051.5612 0009822 063.7797 331.1093 14.59238529258010
Epoch (UTC): 23 May 2013 19:19:36
Eccentricity: 0.0009822
inclination: 74.0053°
perigee height: 688 km
apogee height: 702 km
right ascension of ascending node: 51.5612°
argument of perigee: 63.7797°
revolutions per day: 14.59238529
mean anomaly at epoch: 331.1093°
orbit number at epoch: 25801

The dashed part of the orbit path shows where the satellite is in the earth's shadow,  

Developed and maintained by Chris Peat, Heavens-Above GmbH. Please read the updated FAQ before sending e-mail. Imprint. DLR